[[{"header":{"parameterUnit":"m.s-1","parameterCategory":1,"la1":30.2991,"la2":30.254,"lo1":-89.0895,"lo2":-89.0444,"dy":0.0017,"dx":0.0017,"nx":28,"ny":28,"refTime":"2024-04-24T03:00:00:Z","depth":0,"parameterNumber":2,"parameterNumberName":"U-component_of_WINDS"},"data":[0,0,0,0,0,0,0,0,0,0,0,0,0,0,0,0,0,0,0,0,0,0,0,0,0,0,0,0,0,0,0,0,0,0,0,0,0,0,0,0,0,0,0,0,0,0,0,0,0,0,0,0,0,0,0,0,0,0,-1.4367,-1.4367,0,-1.4323,-1.4322,-1.4322,-1.4267,-1.4266,-1.4265,-1.4264,-1.4217,-1.4217,-1.4216,0,0,0,0,0,0,0,0,0,0,0,0,0,-1.4405,-1.4404,-1.4367,-1.4367,-1.4366,-1.4323,-1.4322,-1.4321,-1.4267,-1.4266,-1.4265,-1.4264,-1.4217,-1.4217,-1.4216,0,0,0,0,0,0,0,0,0,0,0,0,0,-1.4377,-1.4404,-1.4367,-1.4334,-1.433,-1.4323,-1.4322,-1.4321,-1.4267,-1.4266,-1.4265,-1.4263,-1.4217,-1.4217,-1.4216,-1.4237,0,0,-1.4214,-1.4214,0,0,0,0,0,0,0,0,-1.4379,-1.4376,-1.4339,-1.4336,-1.4332,-1.4299,-1.4318,-1.4293,-1.4268,-1.4291,-1.4264,-1.4263,-1.4245,-1.4242,-1.4237,-1.4235,-1.4233,-1.4214,-1.4214,-1.4213,-1.4213,0,0,0,0,0,0,0,-1.4381,-1.4377,-1.435,-1.4339,-1.4335,-1.4321,-1.4315,-1.4313,-1.4276,-1.4289,-1.4285,-1.428,-1.4243,-1.4237,-1.4235,-1.4233,-1.4214,-1.4213,-1.4213,-1.4213,-1.4247,-1.4249,0,0,0,0,0,0,-1.4388,-1.4379,-1.4351,-1.4348,-1.4353,-1.4321,-1.4315,-1.4311,-1.4276,-1.4269,-1.4282,-1.4278,-1.4239,-1.4236,-1.4233,-1.4256,-1.4213,-1.4213,-1.4212,-1.4246,-1.4248,-1.4249,0,0,0,0,0,0,-1.4389,-1.4386,-1.4353,-1.4363,-1.4357,-1.4322,-1.4318,-1.4311,-1.4305,-1.427,-1.4263,-1.4283,-1.4238,-1.4234,-1.4237,-1.4254,-1.4212,-1.4212,-1.4244,-1.4246,-1.4248,-1.4303,0,0,0,0,0,0,-1.439,-1.4387,-1.4394,-1.4363,-1.4357,-1.4358,-1.4319,-1.4311,-1.4304,-1.4299,-1.4269,-1.4263,-1.4237,-1.4238,-1.4236,-1.4252,-1.4211,-1.4243,-1.4245,-1.4248,-1.4299,-1.4306,-1.4312,0,0,0,0,0,-1.4392,-1.4411,-1.4395,-1.4392,-1.4366,-1.4359,-1.4355,-1.4325,-1.4306,-1.4313,-1.4291,-1.4264,-1.4253,-1.4239,-1.4236,-1.4252,-1.4241,-1.4245,-1.4247,-1.4296,-1.4305,-1.4312,0,0,0,0,0,0,-1.4444,-1.4406,-1.4388,-1.4398,-1.4382,-1.435,-1.4358,-1.4335,-1.4324,-1.4319,-1.4282,-1.4276,-1.4283,-1.4268,-1.4254,-1.4272,-1.4243,-1.4246,-1.4281,-1.4289,-1.4296,-1.4299,-1.4211,0,0,0,0,0,-1.4457,-1.4455,-1.4421,-1.4433,-1.4426,-1.4394,-1.4389,-1.4368,-1.4349,-1.4342,-1.432,-1.4303,-1.4296,-1.4292,-1.4283,-1.4297,-1.429,-1.4307,-1.4313,-1.4319,-1.4321,-1.4328,-1.4336,-1.4259,-1.4259,-1.4259,0,0,-1.4483,-1.4462,-1.4463,-1.4443,-1.4428,-1.4426,-1.4388,-1.4388,-1.4386,-1.4342,-1.4343,-1.4327,-1.4306,-1.4315,-1.4317,-1.4302,-1.4341,-1.4323,-1.4327,-1.4327,-1.4332,-1.434,-1.4346,-1.4261,-1.426,-1.426,0,0,-1.453,-1.4514,-1.4522,-1.4508,-1.4487,-1.4465,-1.4468,-1.4439,-1.4426,-1.4428,-1.4395,-1.4392,-1.438,-1.4366,-1.4358,-1.4401,-1.4376,-1.4399,-1.4433,-1.4441,-1.4447,-1.4452,-1.4468,-1.4474,-1.4402,-1.4402,-1.4402,0,-1.4565,-1.4561,-1.4529,-1.4531,-1.4524,-1.4485,-1.4493,-1.4481,-1.4458,-1.4453,-1.4437,-1.4422,-1.4404,-1.441,-1.4421,-1.4415,-1.4416,-1.4402,-1.4448,-1.4453,-1.4458,-1.4472,-1.4478,-1.4405,-1.4405,-1.4404,-1.4404,0,-1.4605,-1.4603,-1.4613,-1.4592,-1.4586,-1.4591,-1.456,-1.4557,-1.4536,-1.4517,-1.4519,-1.4497,-1.4484,-1.4483,-1.4462,-1.4486,-1.4478,-1.4455,-1.4426,-1.4469,-1.4482,-1.4487,-1.4409,-1.4408,-1.4407,-1.4407,0,0,-1.4683,-1.4646,-1.4649,-1.464,-1.4614,-1.4611,-1.4615,-1.4603,-1.4601,-1.4587,-1.4589,-1.458,-1.456,-1.455,-1.4528,-1.4534,-1.4571,-1.4511,-1.451,-1.4523,-1.4596,-1.4613,-1.462,-1.4554,-1.4555,-1.4556,-1.4598,0,-1.4725,-1.4729,-1.4701,-1.4713,-1.4711,-1.4675,-1.4678,-1.4662,-1.4644,-1.464,-1.4619,-1.4614,-1.4588,-1.4582,-1.4587,-1.4565,-1.4585,-1.4562,-1.4556,-1.4556,-1.4562,-1.4627,-1.4644,-1.4685,-1.4603,-1.4604,-1.4604,0,-1.4774,-1.4763,-1.4775,-1.4749,-1.4747,-1.4751,-1.4738,-1.4734,-1.4716,-1.4702,-1.4692,-1.4667,-1.4669,-1.4641,-1.4643,-1.4628,-1.4624,-1.4614,-1.4614,-1.4613,-1.4583,-1.4627,-1.4697,-1.4703,-1.4612,-1.4611,-1.4611,0,-1.483,-1.4818,-1.4824,-1.4817,-1.4787,-1.479,-1.4778,-1.4758,-1.4753,-1.4741,-1.4738,-1.4726,-1.472,-1.4712,-1.4684,-1.4667,-1.469,-1.466,-1.4679,-1.468,-1.4685,-1.4685,-1.4756,-1.4682,-1.4682,-1.4682,-1.4682,0,-1.4879,-1.4888,-1.4848,-1.4852,-1.4861,-1.4829,-1.4839,-1.4823,-1.4806,-1.4806,-1.4773,-1.4774,-1.4737,-1.4734,-1.4712,-1.4717,-1.4715,-1.4704,-1.4698,-1.4707,-1.4708,-1.4703,-1.47,-1.4684,-1.4684,-1.4683,-1.4683,0,-1.4943,-1.4916,-1.492,-1.4892,-1.4886,-1.4893,-1.4869,-1.4871,-1.4852,-1.4852,-1.485,-1.482,-1.4814,-1.4786,-1.4773,-1.4759,-1.4772,-1.476,-1.4778,-1.4774,-1.4795,-1.4793,-1.4865,-1.4873,-1.4795,-1.4796,-1.4796,0,-1.4976,-1.4982,-1.4955,-1.4953,-1.4942,-1.4939,-1.4934,-1.4903,-1.4899,-1.4879,-1.4884,-1.4876,-1.4868,-1.486,-1.4837,-1.4827,-1.4815,-1.4841,-1.4813,-1.4822,-1.4816,-1.4816,-1.4817,-1.4847,-1.4848,-1.4849,-1.4849,0,-1.5038,-1.5025,-1.5019,-1.5009,-1.5004,-1.4994,-1.4982,-1.4982,-1.4948,-1.4945,-1.4939,-1.4933,-1.4921,-1.4914,-1.49,-1.4887,-1.4863,-1.4858,-1.4862,-1.4871,-1.4882,-1.4877,-1.4794,-1.4857,-1.4856,-1.4855,-1.4855,-1.4855,-1.5087,-1.5091,-1.5073,-1.5068,-1.5056,-1.5046,-1.5047,-1.5029,-1.5023,-1.5012,-1.4994,-1.4991,-1.4973,-1.4953,-1.4942,-1.4939,-1.4925,-1.493,-1.4932,-1.4934,-1.4939,-1.4883,-1.4936,-1.4936,-1.4936,-1.4936,-1.4936,0,-1.5148,-1.5135,-1.513,-1.5116,-1.5112,-1.509,-1.5076,-1.5074,-1.5072,-1.5058,-1.5051,-1.5045,-1.5038,-1.5014,-1.5005,-1.5007,-1.4996,-1.5006,-1.5005,-1.5003,-1.4951,-1.4949,-1.5015,-1.5015,-1.5015,-1.5015,-1.5015,-1.5015,-1.5179,-1.5185,-1.517,-1.517,-1.5157,-1.5154,-1.5148,-1.5139,-1.5128,-1.5123,-1.5117,-1.5102,-1.5085,-1.5074,-1.5067,-1.506,-1.5058,-1.5072,-1.5061,-1.5014,-1.5006,-1.4999,-1.4997,-1.5072,-1.5072,-1.5113,-1.5113,-1.5114]},{"header":{"parameterUnit":"m.s-1","parameterCategory":1,"la1":30.2991,"la2":30.254,"lo1":-89.0895,"lo2":-89.0444,"dy":0.0017,"dx":0.0017,"nx":28,"ny":28,"refTime":"2024-04-24T03:00:00:Z","depth":0,"parameterNumber":3,"parameterNumberName":"V-component_of_WINDS"},"data":[0,0,0,0,0,0,0,0,0,0,0,0,0,0,0,0,0,0,0,0,0,0,0,0,0,0,0,0,0,0,0,0,0,0,0,0,0,0,0,0,0,0,0,0,0,0,0,0,0,0,0,0,0,0,0,0,0,0,0.1657,0.1657,0,0.1697,0.1697,0.1698,0.1721,0.1722,0.1722,0.1722,0.1764,0.1765,0.1766,0,0,0,0,0,0,0,0,0,0,0,0,0,0.1602,0.1603,0.1657,0.1657,0.1658,0.1697,0.1697,0.1698,0.1721,0.1722,0.1722,0.1722,0.1764,0.1765,0.1766,0,0,0,0,0,0,0,0,0,0,0,0,0,0.1633,0.1603,0.1657,0.1674,0.1676,0.1697,0.1697,0.1698,0.1721,0.1722,0.1722,0.1722,0.1764,0.1765,0.1767,0.1773,0,0,0.1771,0.1772,0,0,0,0,0,0,0,0,0.1631,0.1635,0.1671,0.1673,0.1675,0.1704,0.1694,0.1723,0.1721,0.1704,0.1722,0.1722,0.1744,0.1747,0.1755,0.1775,0.1777,0.1772,0.1772,0.1773,0.1774,0,0,0,0,0,0,0,0.1629,0.1633,0.1673,0.1672,0.1674,0.1681,0.1685,0.17,0.1723,0.1706,0.1708,0.1712,0.1745,0.1753,0.1756,0.1778,0.1771,0.1773,0.1774,0.1774,0.1807,0.1807,0,0,0,0,0,0,0.1624,0.1631,0.1672,0.1674,0.1653,0.1681,0.1686,0.1695,0.1723,0.1727,0.1712,0.1713,0.175,0.1754,0.1757,0.1768,0.1773,0.1775,0.1775,0.1807,0.1807,0.1807,0,0,0,0,0,0,0.1622,0.1627,0.167,0.1653,0.1659,0.1682,0.1692,0.1696,0.1703,0.1727,0.1732,0.1715,0.1751,0.1755,0.1769,0.1769,0.1775,0.1777,0.1807,0.1807,0.1807,0.1788,0,0,0,0,0,0,0.1621,0.1626,0.1629,0.1653,0.166,0.168,0.1692,0.1696,0.1706,0.1708,0.1732,0.1736,0.1751,0.1767,0.1771,0.1772,0.1778,0.1807,0.1807,0.1807,0.1788,0.1787,0.1786,0,0,0,0,0,0.1619,0.1622,0.1629,0.1633,0.1663,0.168,0.1684,0.1701,0.1706,0.1709,0.1724,0.1735,0.1769,0.1768,0.1773,0.1774,0.1807,0.1807,0.1807,0.1789,0.1787,0.1786,0,0,0,0,0,0,0.1598,0.1625,0.1633,0.1644,0.166,0.1684,0.1688,0.1699,0.1714,0.1715,0.1736,0.1741,0.1753,0.1765,0.1764,0.1782,0.1789,0.179,0.1774,0.1773,0.1771,0.1768,0.1779,0,0,0,0,0,0.1594,0.1605,0.1629,0.1637,0.1644,0.1665,0.1673,0.1685,0.1702,0.1709,0.1725,0.1742,0.1756,0.1765,0.1779,0.179,0.1796,0.1794,0.1792,0.1791,0.1791,0.1799,0.1798,0.1806,0.1806,0.1806,0,0,0.1588,0.1604,0.161,0.1633,0.1647,0.1658,0.167,0.1682,0.1691,0.1711,0.1725,0.1737,0.1757,0.177,0.1776,0.178,0.179,0.1791,0.179,0.1791,0.1798,0.1797,0.1797,0.1806,0.1806,0.1806,0,0,0.1581,0.1595,0.1603,0.1616,0.1636,0.1649,0.1651,0.1674,0.1683,0.1698,0.1713,0.1724,0.1748,0.1762,0.1772,0.1771,0.1782,0.1775,0.1768,0.1775,0.1774,0.1774,0.1774,0.1774,0.1776,0.1776,0.1776,0,0.1571,0.1588,0.1606,0.1617,0.1627,0.1644,0.1653,0.1665,0.1689,0.1695,0.1699,0.173,0.1745,0.1761,0.1761,0.1768,0.1771,0.1773,0.1773,0.1772,0.1772,0.1773,0.1773,0.1775,0.1775,0.1775,0.1775,0,0.1574,0.1586,0.1591,0.1613,0.1623,0.1633,0.1652,0.1661,0.1672,0.1685,0.17,0.1718,0.1737,0.1741,0.1752,0.1759,0.1761,0.1769,0.1776,0.177,0.1771,0.1771,0.1773,0.1774,0.1774,0.1774,0,0,0.1556,0.1588,0.1589,0.1599,0.1623,0.1633,0.1643,0.1661,0.1668,0.1684,0.1694,0.1714,0.1721,0.1733,0.1745,0.1751,0.175,0.1758,0.1759,0.1756,0.1759,0.1753,0.1753,0.1757,0.1757,0.1757,0.1757,0,0.1553,0.1573,0.1589,0.1603,0.1615,0.1632,0.1641,0.1657,0.167,0.1682,0.1697,0.1711,0.1719,0.1726,0.1732,0.1748,0.1751,0.1749,0.1767,0.1767,0.1761,0.1753,0.1747,0.1747,0.1758,0.1758,0.1758,0,0.1553,0.1568,0.1583,0.1605,0.1611,0.1619,0.1636,0.1648,0.1666,0.1675,0.1688,0.1701,0.1714,0.1719,0.1738,0.1736,0.1744,0.1753,0.1754,0.1756,0.1762,0.1756,0.1747,0.1747,0.1758,0.1758,0.1758,0,0.1539,0.1562,0.1574,0.1583,0.1609,0.1614,0.1626,0.1644,0.1654,0.1669,0.1676,0.1693,0.1703,0.1716,0.1733,0.1736,0.175,0.1757,0.1758,0.1758,0.1761,0.176,0.1753,0.1766,0.1766,0.1766,0.1766,0,0.1534,0.1543,0.1568,0.1576,0.1586,0.1605,0.1614,0.1627,0.1643,0.1654,0.167,0.168,0.1702,0.1715,0.1729,0.1742,0.1746,0.1754,0.1758,0.1753,0.1752,0.1759,0.176,0.1766,0.1766,0.1766,0.1766,0,0.152,0.1537,0.1551,0.1575,0.1581,0.1588,0.1608,0.1617,0.163,0.1644,0.1648,0.167,0.1686,0.1704,0.1726,0.1736,0.1748,0.1753,0.1742,0.1744,0.1744,0.1744,0.1741,0.1742,0.1754,0.1753,0.1753,0,0.1516,0.1523,0.1547,0.1555,0.1566,0.1579,0.1589,0.1608,0.1617,0.1639,0.1645,0.1661,0.1676,0.17,0.1719,0.1736,0.1742,0.174,0.1744,0.1739,0.1742,0.1742,0.1743,0.1739,0.1738,0.1738,0.1738,0,0.1507,0.1515,0.1529,0.1546,0.1557,0.1571,0.1586,0.1592,0.1614,0.1624,0.164,0.1651,0.1674,0.169,0.171,0.1722,0.1734,0.1736,0.1738,0.1733,0.1726,0.173,0.1738,0.1736,0.1736,0.1737,0.1737,0.1737,0.1498,0.1505,0.1524,0.1538,0.1551,0.1565,0.1574,0.1589,0.1602,0.1621,0.1632,0.1648,0.1667,0.1694,0.1706,0.1719,0.1723,0.1725,0.1725,0.1725,0.1724,0.1723,0.1722,0.1722,0.1722,0.1722,0.1723,0,0.1491,0.1503,0.1517,0.1537,0.1548,0.1558,0.1575,0.1584,0.1598,0.1614,0.1628,0.1647,0.1663,0.1682,0.17,0.1707,0.1713,0.1711,0.1711,0.1714,0.1719,0.1716,0.1706,0.1706,0.1706,0.1706,0.1706,0.1706,0.1488,0.1501,0.1511,0.1531,0.1543,0.1559,0.1568,0.1581,0.1594,0.1614,0.1627,0.1639,0.1657,0.1676,0.1692,0.1697,0.1703,0.17,0.1707,0.1712,0.1713,0.1715,0.1712,0.1701,0.1701,0.1701,0.1701,0.1701]}]]